Weather in Moreno Valley

United States     33°55′45″N   117°15′38″W
В апреле 2022 года жителям России запретили посещать сайт meteo.paraplan.net по решению Генеральной прокуратуры. Аудитория сайта уменьшилась в 10 раз. Владельцы сайта не видят смысла в поддержке погодного сервера в таких условиях. Сайт будет закрыт в октябре.
temp.,
°C
wind,
m/s
gust,
m/s
humid.,
%
clouds,
%
prec.,
mm/h
press.,
hPa
HPBL,
m
4 october, tue
tue423:00+22nw11600 0.0 1014117
02:00+20wnw01660 0.0 101382
05:00+20wnw11650 0.0 101349
08:00+23wsw00500 0.0 1014108
11:00+29w22320 0.0 1013452
14:00+33w44223 0.0 1011869
17:00+31w55251 0.0 1010830
20:00+24nw11430 0.0 1013209
5 october, wed
wed523:00+22wnw11530 0.0 1014139
02:00+21w11570 0.0 101475
05:00+20wnw11610 0.0 101349
08:00+23wnw01490 0.0 1014109
11:00+29wsw21280 0.0 1014461
14:00+33w54190 0.0 1011987
17:00+31wnw55252 0.0 1011814
20:00+25wnw12420 0.0 1014231
6 october, thu
thu623:00+22nw01530 0.0 1015135
02:00+21sw01550 0.0 101575
05:00+21nw11550 0.0 101432
08:00+24sw00420 0.0 101581
11:00+29w22272 0.0 1015504
14:00+33w541816 0.0 1013970
17:00+31wnw552311 0.0 1012685
20:00+24nw12440 0.0 1015206
7 october, fri
fri723:00+22n01510 0.0 1016110
02:00+22nnw01470 0.0 101520
05:00+21nnw11450 0.0 101513
08:00+25nne01310 0.0 101636
11:00+31wsw22160 0.0 1015606
14:00+35wsw331220 0.0 10122122
17:00+33wnw541727 0.0 10111082
20:00+26nnw22340 0.0 1014178
8 october, sat
sat823:00+24ne01370 0.0 101550
02:00+23se01400 0.0 101516
05:00+22nne01405 0.0 101512
08:00+25se11322 0.0 101578
11:00+30sw222520 0.0 1015748
14:00+31nnw322368 0.1 1012580
17:00+31w652624 0.3 10121159
20:00+24wnw22460 0.0 1015285